GW7029 Weather Reports


time (UTC)temp
C
wind
direction
speed
KPH
gust
KPH
rain 1hr
cm
rain 24hr
cm
rain mn
cm
humidity
%
barometer
mb
20260504150904 16 242 3.2 11.3 0.00 0.00 0.00 33 1011.9
20260504140926 15 230 4.8 12.9 0.00 0.00 0.00 36 1012.6
20260504081825 5 241 0.0 3.2 0.00 0.00 0.00 59 1012.2
20260504080904 5 241 0.0 3.2 0.00 0.00 0.00 59 1012.2
20260504050004 5 304 0.0 1.6 0.00 0.00 0.00 60 1012.6
20260504045404 5 304 0.0 1.6 0.00 0.00 0.00 60 1012.6
20260504044525 5 304 0.0 1.6 0.00 0.00 0.00 59 1012.6
20260504043604 5 304 0.0 1.6 0.00 0.00 0.00 58 1012.6
20260504042704 5 305 0.0 1.6 0.00 0.00 0.00 58 1012.6
20260504041803 5 305 0.0 1.6 0.00 0.00 0.00 57 1012.6
20260504040904 5 305 0.0 1.6 0.00 0.00 0.00 56 1012.2
20260504040025 5 305 0.0 1.6 0.00 0.00 0.00 56 1012.6
20260504035404 5 306 0.0 1.6 0.00 0.00 0.00 56 1012.6
20260504034504 5 0 0.0 0.0 0.00 0.00 0.00 55 1012.2
20260504033625 5 306 0.0 1.6 0.00 0.00 0.00 55 1012.2
20260504032704 5 306 0.0 1.6 0.00 0.00 0.00 54 1012.2
20260504031804 5 306 0.0 1.6 0.00 0.00 0.00 53 1012.2
20260504030904 5 307 0.0 1.6 0.00 0.00 0.00 53 1012.2
20260504030004 5 307 0.0 1.6 0.00 0.00 0.00 53 1012.2
20260504025404 5 0 0.0 0.0 0.00 0.00 0.00 52 1012.2
20260504024504 5 0 0.0 0.0 0.00 0.00 0.00 51 1012.2
20260504023603 5 0 0.0 0.0 0.00 0.00 0.00 51 1012.2
20260504022704 5 0 0.0 0.0 0.00 0.00 0.00 51 1012.2
20260504021803 6 307 0.0 1.6 0.00 0.00 0.00 50 1012.2
20260504020924 6 307 0.0 1.6 0.00 0.00 0.00 49 1012.2
20260504020004 6 307 0.0 1.6 0.00 0.00 0.00 49 1012.2
20260504015403 6 307 0.0 1.6 0.00 0.00 0.00 47 1012.2
20260504014503 6 307 0.0 1.6 0.00 0.00 0.00 47 1012.2
20260504013604 7 307 0.0 1.6 0.00 0.00 0.00 46 1012.2
20260504012704 7 307 0.0 1.6 0.00 0.00 0.00 46 1011.9
20260504011803 7 307 0.0 1.6 0.00 0.00 0.00 45 1011.9
20260504010903 7 0 0.0 0.0 0.00 0.00 0.00 45 1011.5
20260504010024 8 0 0.0 0.0 0.00 0.00 0.00 45 1011.5
20260504005404 8 0 0.0 0.0 0.00 0.00 0.00 45 1011.5
20260504004503 8 307 0.0 1.6 0.00 0.00 0.00 45 1011.5
20260504003603 8 307 0.0 1.6 0.00 0.00 0.00 44 1011.2
20260504002703 8 307 0.0 1.6 0.00 0.00 0.00 44 1011.2
20260504001803 8 307 0.0 1.6 0.00 0.00 0.00 43 1010.8
20260504000903 8 0 0.0 0.0 0.00 0.00 0.00 42 1010.8
20260504000004 8 0 0.0 0.0 0.00 0.00 0.00 41 1010.5
20260503235403 8 0 0.0 0.0 0.00 0.00 0.00 41 1010.5
20260503234503 9 310 0.0 1.6 0.00 0.00 0.00 39 1010.5
20260503233603 10 316 0.0 6.4 0.00 0.00 0.00 37 1010.5
20260503232703 10 325 1.6 4.8 0.00 0.00 0.00 35 1010.5
20260503231803 10 327 1.6 4.8 0.00 0.00 0.00 33 1010.5
20260503230924 10 332 1.6 12.9 0.00 0.00 0.00 32 1010.1
20260503230004 10 323 4.8 20.9 0.00 0.00 0.00 30 1010.5
20260503225403 11 312 3.2 17.7 0.00 0.00 0.00 33 1010.1
20260503224503 11 314 4.8 30.6 0.00 0.00 0.00 32 1010.1
20260503223603 11 340 3.2 30.6 0.00 0.00 0.00 31 1010.1
20260503222703 11 295 3.2 11.3 0.00 0.00 0.00 31 1010.1
20260503221803 11 313 3.2 11.3 0.00 0.00 0.00 33 1010.1
20260503220924 11 311 4.8 22.5 0.00 0.00 0.00 32 1010.1
20260503220025 11 288 4.8 22.5 0.00 0.00 0.00 30 1010.1
20260503215403 11 307 4.8 22.5 0.00 0.00 0.00 32 1010.5
20260503214503 11 307 4.8 16.1 0.00 0.00 0.00 33 1010.1
20260503213603 11 310 4.8 24.1 0.00 0.00 0.00 32 1010.1
20260503212703 10 302 6.4 24.1 0.00 0.00 0.00 32 1010.1
20260503211803 10 318 6.4 22.5 0.00 0.00 0.00 33 1009.8
20260503210903 11 313 4.8 25.7 0.00 0.00 0.00 33 1010.1
20260503210003 10 317 6.4 17.7 0.00 0.00 0.00 34 1010.1
20260503205424 10 318 8.0 17.7 0.00 0.00 0.00 33 1009.8
20260503204503 11 278 4.8 22.5 0.00 0.00 0.00 33 1010.1
20260503203624 10 300 8.0 37.0 0.00 0.00 0.00 33 1009.8
20260503202724 11 312 9.7 33.8 0.00 0.00 0.00 33 1010.1
20260503201803 10 309 8.0 27.4 0.00 0.00 0.00 33 1010.1
20260503200903 10 307 6.4 24.1 0.00 0.00 0.00 36 1009.8
20260503200003 10 317 8.0 33.8 0.00 0.00 0.00 34 1010.1
20260503195403 11 303 3.2 22.5 0.00 0.00 0.00 35 1010.1
20260503194503 11 325 4.8 20.9 0.00 0.00 0.00 34 1010.1
20260503193603 11 321 6.4 22.5 0.00 0.00 0.00 37 1010.1
20260503192704 11 321 4.8 16.1 0.00 0.00 0.00 34 1010.1
20260503191803 10 331 8.0 25.7 0.00 0.00 0.00 33 1010.1
20260503190924 10 325 11.3 33.8 0.00 0.00 0.00 33 1010.1
20260503190003 10 307 9.7 25.7 0.00 0.00 0.00 34 1010.1
20260503185403 10 312 8.0 24.1 0.00 0.00 0.00 34 1010.1
20260503184503 10 315 4.8 27.4 0.00 0.00 0.00 36 1010.1
20260503183603 10 306 6.4 22.5 0.00 0.00 0.00 34 1010.1
20260503182724 10 291 4.8 22.5 0.00 0.00 0.00 34 1010.1
20260503181803 10 306 6.4 20.9 0.00 0.00 0.00 36 1010.5
20260503180903 10 318 8.0 22.5 0.00 0.00 0.00 34 1010.1
20260503180003 10 302 6.4 30.6 0.00 0.00 0.00 34 1009.8
20260503175403 10 309 8.0 17.7 0.00 0.00 0.00 34 1010.1
20260503174503 10 308 9.7 33.8 0.00 0.00 0.00 32 1009.8
20260503173603 10 306 8.0 25.7 0.00 0.00 0.00 33 1009.8
20260503172703 11 299 8.0 30.6 0.00 0.00 0.00 32 1009.8
20260503171824 10 305 8.0 29.0 0.00 0.00 0.00 35 1009.8
20260503170924 10 318 6.4 22.5 0.00 0.00 0.00 36 1010.1